User: anonymous   Login
Location: Unspecified
(0.0000°N, 0.0000°E)
Time: 03:37:51
(UTC+02:00)
Language:

ATLAS V CENTAUR R/B - Orbit

View from above orbital plane
View from above orbital plane
View from above satellite
View from above satellite

Ground track
Ground track

The orbit data is extracted from the following two-line orbital elements,

1 27500U 02038B   16212.23299903  .00003717  00000-0  79516-3 0  9995
2 27500  17.9500 233.5795 6810317 351.7712   1.2112  2.89326063116491
Epoch (UTC): 30 July 2016 05:35:31
Eccentricity: 0.6810317
inclination: 17.9500°
perigee height: 257 km
apogee height: 28593 km
right ascension of ascending node: 233.5795°
argument of perigee: 351.7712°
revolutions per day: 2.89326063
mean anomaly at epoch: 1.2112°
orbit number at epoch: 11649

The dashed part of the orbit path shows where the satellite is in the earth's shadow,  

DLR